This is the latest recevied weather packets stored in our database for station/object XE1E-15. If no packets are shown the sender has not sent any weather packets the latest 10 day(s).
| Time | Temp. | Humidity | Pressure | Rain* | Wind** | Luminosity | Snow |
|---|---|---|---|---|---|---|---|
| 1777764228 | 29.44° C | 31% | 1019.5 hPa | - | - | - | - |
| 1777763268 | 29.44° C | 30% | 1019.6 hPa | - | - | - | - |
| 1777762308 | 30° C | 29% | 1019.6 hPa | - | - | - | - |
| 1777761348 | 30° C | 28% | 1019.7 hPa | - | - | - | - |
| 1777760388 | 31.11° C | 27% | 1019.7 hPa | - | - | - | - |
| 1777759428 | 31.11° C | 27% | 1019.7 hPa | - | - | - | - |
| 1777758468 | 31.11° C | 27% | 1019.8 hPa | - | - | - | - |
| 1777757508 | 31.67° C | 26% | 1019.7 hPa | - | - | - | - |
| 1777756548 | 32.22° C | 25% | 1020 hPa | - | - | - | - |
| 1777755588 | 32.78° C | 24% | 1019.9 hPa | - | - | - | - |
| 1777754627 | 32.22° C | 24% | 1020.3 hPa | - | - | - | - |
| 1777753702 | 32.22° C | 25% | 1020.5 hPa | - | - | - | - |
| 1777753667 | 32.22° C | 25% | 1020.5 hPa | - | - | - | - |
| 1777752707 | 32.22° C | 24% | 1020.7 hPa | - | - | - | - |
| 1777751785 | 31.67° C | 24% | 1020.9 hPa | - | - | - | - |
| 1777751747 | 31.67° C | 24% | 1020.9 hPa | - | - | - | - |
| 1777750310 | 31.67° C | 24% | 1021.2 hPa | - | - | - | - |
| 1777749350 | 31.67° C | 23% | 1021.5 hPa | - | - | - | - |
| 1777748389 | 30.56° C | 24% | 1021.8 hPa | - | - | - | - |
| 1777747429 | 31.11° C | 24% | 1022 hPa | - | - | - | - |
| 1777746469 | 31.11° C | 24% | 1022.2 hPa | - | - | - | - |
| 1777745509 | 33.33° C | 22% | 1022.3 hPa | - | - | - | - |
| 1777744549 | 33.33° C | 23% | 1022.6 hPa | - | - | - | - |
| 1777743589 | 33.33° C | 22% | 1022.8 hPa | - | - | - | - |
| 1777742629 | 32.78° C | 22% | 1022.9 hPa | - | - | - | - |
* Rain since midnight (hover to see other rain measurements)
** Current wind speed in m/s (hover to see current wind gust speed)